Regional Weather Roundup
Issued by NWS

Home | Current Version | Previous Version | Text Only | Print | Product List | Glossary On
Versions: 1 2 3 4 5 6 7 8 9 10 11 12 13 14 15 16 17 18 19 20 21 22 23 24 25 26 27 28 29 30 31 32 33 34 35 36 37 38 39 40 41 42 43 44 45 46 47 48 49 50
000
ASUS45 KTFX 271619
RWRMT
MONTANA HOURLY WEATHER ROUNDUP
NATIONAL WEATHER SERVICE GREAT FALLS MT
1019 AM MDT FRI MAR 27 2015

NOTE: "FAIR" INDICATES FEW OR NO CLOUDS BELOW 12000 FEET WITH NO
SIGNIFICANT WEATHER AND/OR OBSTRUCTIONS TO VISIBILITY.

* THESE STATIONS ARE NOT UNDER NWS QUALITY CONTROL. THEY DO NOT
   REPORT WEATHER SUCH AS PRECIPITATION OR FOG.

MTZ001>007-043-271700-
WEST OF THE DIVIDE
CITY           SKY/WX    TMP DP  RH WIND       PRES   REMARKS
KALISPELL      PTCLDY    41  39  93 VRB3      30.16F
MISSOULA       FOG       39  39 100 CALM      30.21F VSB 1 3/4
BUTTE          PTCLDY    39  34  82 CALM      30.22F
MULLAN PASS    SUNNY     46  37  71 VRB6      30.18R
* ESSEX        N/A       33  33 100 N/A        N/A
* EUREKA APT   SUNNY     46  39  77 CALM       N/A
* HAMILTON APT SUNNY     46  37  71 N2        30.19F
* LIBBY APT    SUNNY     39  37  93 CALM      30.18S VSB M1/4
* LINCOLN      N/A       41  36  82 NW2        N/A
* LOOKOUT PASS N/A       40  40 100 SE4        N/A
* POLSON       N/A       40  40 100 N/A        N/A
* SEELEY LAKE  N/A       37  35  92 N/A        N/A
* THOMP F APT  SUNNY     45  34  65 W1         N/A
* YAAK HILL    N/A       39  37  93 SE1        N/A
$$

MTZ008-052>055-271700-
SOUTHWEST MONTANA
CITY           SKY/WX    TMP DP  RH WIND       PRES   REMARKS
BOZEMAN        PTCLDY    50  36  59 E3        30.19F
DILLON         SUNNY     50  34  54 SW9       30.21F
* W YELLOWSTON SUNNY     35  31  85 N/A        N/A
* THREE FORKS  PTCLDY    46  46 100 N/A        N/A
* TWIN BRIDGES SUNNY     43  32  65 SE5        N/A
* BOULDER HILL N/A       52  30  43 S9G14      N/A
* HOMESTAKE PS N/A       47  32  56 W5         N/A
* MONIDA PASS  N/A       40  34  79 SE17       N/A   WCI  31
* RAYNOLDS PAS N/A       36  18  48 SE16       N/A   WCI  26
* WHITEHALL    N/A       50  37  61 W5G11      N/A
* WISE RIVER   N/A       32  29  89 E4         N/A
$$

MTZ009>010-012-014-046-048-049-054-271700-
EAST SLOPES AND CENTRAL MONTANA
CITY           SKY/WX    TMP DP  RH WIND       PRES   REMARKS
CUT BANK       CLOUDY    55  36  49 W23G36    30.02F
GREAT FALLS    PTCLDY    61  34  36 SW9       30.05S
HELENA         PTCLDY    57  37  47 CALM      30.15S
MALMSTROM AFB  SUNNY     59  36  42 SW14      30.05F
* DEARBORN     N/A       62  33  34 SE14G20    N/A
* EAST GLACIER N/A       46  35  66 W20G30     N/A
* MONARCH      N/A       52  27  38 S8G15      N/A
* PENDROY      N/A       62  24  23 W12        N/A
* ROGERS PASS  N/A       45  35  68 SE10G20    N/A
* SAINT MARY   N/A       50  34  54 S12G24     N/A
* WHITE SULPH  N/A       54  34  47 S12G19     N/A
$$

MTZ011-013-016-021-035-040-045-047-050-051-271700-
NORTH CENTRAL MONTANA
CITY           SKY/WX    TMP DP  RH WIND       PRES   REMARKS
HAVRE          PTCLDY    54  37  53 SW10      30.00S
LEWISTOWN      SUNNY     59  34  39 W12       30.06F
* N BAR RANCH  SUNNY     61  25  25 NW13      30.07F
* CHINOOK      PTSUNNY   54  39  57 W3        29.99F
* FORT BENTON  PTCLDY    55  36  49 SW6       30.04F
* MALTA APT    CLOUDY    54  39  57 W11G16     N/A
* CHESTER      N/A       57  34  42 W16G24     N/A
* DENTON       N/A       59  34  39 SW3        N/A
* GEYSER       N/A       59  33  38 W13        N/A
* JUDITH GAP   N/A       59  33  38 NE3        N/A
* LOMA         N/A       55  31  40 SW8        N/A
$$

MTZ017>020-022>027-061-062-271700-
NORTHEAST MONTANA
CITY           SKY/WX    TMP DP  RH WIND       PRES   REMARKS
GLASGOW        PTCLDY    48  37  66 NW8       29.97S
GLENDIVE       PTSUNNY   54  39  57 NW13      29.97S
JORDAN         PTCLDY    59  39  48 NW17      29.99S
SIDNEY         CLOUDY    54  36  51 W16       29.93F
WOLF POINT     PTCLDY    48  37  66 SW8       29.97S
* BEAVER HILL  N/A       47  37  68 W16        N/A
* CIRCLE       N/A       53  41  64 W16        N/A
* LINDSAY DVD  N/A       50  38  64 NW17       N/A
* NAVAJO       N/A       44  34  68 NW14       N/A
* PLENTYWOOD A PTSUNNY   43  36  76 W8        29.92S
* POPLAR APT   PTSUNNY   45  37  74 SW8       29.96F
* SACO         N/A       47  39  74 SW1        N/A
$$

MTZ028>042-056>058-271700-
SOUTHCENTRAL AND SOUTHEAST MONTANA
CITY           SKY/WX    TMP DP  RH WIND       PRES   REMARKS
BAKER          CLOUDY    52  37  57 NW12      29.98S
BILLINGS       PTSUNNY   54  36  51 SW20      30.07F
LIVINGSTON     PTSUNNY   57  32  39 W18G29    30.16S
MILES CITY     PTCLDY    57  37  47 NW16      30.00S
* BIG TIMBER A SUNNY     57  32  39 W25G35    30.11F
* FORSYTH APT  PTCLDY    57  37  47 W9        30.02F
* LAUREL APT   PTCLDY    48  34  59 S6         N/A
* ROUNDUP APT  SUNNY     55  32  42 W10        N/A
* ALZADA       N/A       56  40  55 W12G17     N/A
* HYSHAM       N/A       54  34  47 W9         N/A
* LAME DEER    N/A       52  36  55 W12G20     N/A
* REED POINT   N/A       63  34  34 W13G18     N/A
* ROSCOE HILL  N/A       61  15  16 NE2G10     N/A
$$

REGIONAL REPORTS...DAKOTAS
CITY           SKY/WX    TMP DP  RH WIND       PRES   REMARKS
WILLISTON      CLOUDY    39  32  76 SW5       29.92F WCI  35
DICKINSON      PTSUNNY   48  36  63 W14       29.91F
BEACH          PTSUNNY   50  37  61 NW20      29.96R
CROSBY         PTSUNNY   39  36  89 SW14      29.90F WCI  31
TIOGA          CLOUDY    37  37 100 SW10      29.93F WCI  30
WATFORD CITY   SUNNY     41  34  76 W9        29.91S
BISMARCK       CLOUDY    27  23  85 S18       30.04F WCI  14
GRAND FORKS    CLOUDY    28  10  47 S13       30.19F WCI  17
FARGO          PTSUNNY   28  12  51 S13       30.22F WCI  17
BUFFALO SD     PTSUNNY   45  37  74 W8        29.91S
RAPID CITY     SUNNY     45  36  71 VRB3      29.99F
$$

REGIONAL REPORTS...WYOMING/IDAHO/WASHINGTON
CITY           SKY/WX    TMP DP  RH WIND       PRES   REMARKS
GILLETTE       PTCLDY    55  37  51 W18G24    30.08F
SHERIDAN       SUNNY     61  34  36 NW20      30.08F
CODY           SUNNY     59  30  33 W15G28    30.15F
YELLOWSTONE LA SUNNY     34  28  79 SE6       30.36F WCI  29
SALMON         SUNNY     43  34  71 CALM      30.27F
MULLAN PASS    SUNNY     46  37  71 VRB6      30.18S
SAND POINT     PTCLDY    41  41 100 CALM      30.16S
SPOKANE        FOG       43  43 100 NE9       30.12R VSB M1/4
$$

REGIONAL REPORTS...ALBERTA
CITY           SKY/WX    TMP DP  RH WIND       PRES   REMARKS
CALGARY        PTSUNNY   52  28  40 S5        29.92F
LETHBRIDGE     PTSUNNY   55  36  49 W25G35    29.96S
MEDICINE HAT   PTSUNNY   55  39  55 SW9       29.94F
EDMONTON       PTCLDY    43  36  76 CALM      29.88S
WATERTON GATE  N/A       50  34  54 SW17G30    N/A
CARDSTON       N/A       54  32  43 W18G30     N/A
MILK RIVER     N/A       55  36  49 W13        N/A
$$

REGIONAL REPORTS...SASKATCHEWAN
CITY           SKY/WX    TMP DP  RH WIND       PRES   REMARKS
SWIFT CURRENT  SUNNY     52  39  61 W10       29.91R
MOOSE JAW      PTSUNNY   46  37  71 NW9       29.91S
REGINA         CLOUDY    37  34  89 W6        29.89S WCI  32
VAL MARIE      N/A       46  37  71 S2         N/A
ASSINIBOIA     N/A       46  36  68 NW8        N/A
CORONACH       N/A       48  36  63 NW12       N/A

$$



USA.gov is the U.S. government's official web portal to all federal, state and local government web resources and services.